Location: Baia Mare
(47.6567°N, 23.5850°E)
Time: 23:39:33
(UTC+03:00)

ISS - Pass Details

Date: 30 July 2018
Orbit: 402 x 408 km, 51.6° (Epoch: 22 July)

Event Time Altitude Azimuth Distance (km) Brightness Sun altitude
Rises 01:00:27 0° 290° (WNW) 2,326 0.4 -23.4°
Reaches altitude 10° 01:02:40 10° 280° (W) 1,464 -0.8 -23.4°
Enters shadow 01:02:47 11° 279° (W) 1,419 -0.9 -23.4°
